602  
ASUS45 KSLC 190010  
RWRUT  
 
UTAH REGIONAL WEATHER ROUNDUP  
NATIONAL WEATHER SERVICE SALT LAKE CITY UT  
600 PM MDT SAT AUG 18 2018  
 
UTZ001>011-023>025-190100-  
 
NORTHERN UTAH  
 
CITY SKY/WX TMP DP RH WIND PRES REMARKS
 
BRIGHAM CITY SUNNY 85 37 17 W3 30.14S  
HILL AFB SUNNY 82 42 23 W5 30.17F  
LOGAN SUNNY 84 41 21 NW13G18 30.14S  
OGDEN SUNNY 83 42 23 SW6 30.14F  
SALT LAKE CITY SUNNY 84 38 19 N8 30.13F  
TOOELE VALLEY SUNNY 82 46 28 N9 30.15S  
WENDOVER SUNNY 90 34 13 NW9 30.12F HAZE  
HEBER CITY N/A 79 34 19 CALM 30.22S  
WEST JORDAN SUNNY 83 46 26 NW15 30.17S  
 

 
 
UTZ011>015-024>027-190100-  
 
CENTRAL/NORTHEAST UTAH  
 
CITY SKY/WX TMP DP RH WIND PRES REMARKS
 
PROVO AIRPORT MOSUNNY 85 39 19 N10 30.15F  
MOAB/CANYONLAN SUNNY 92 35 13 W16G22 30.02F  
DELTA SUNNY 88 27 11 N13G20 30.14F  
PRICE SUNNY 82 37 20 NW17G23 30.19S  
ROOSEVELT SUNNY 86 32 14 W23G30 30.12S  
VERNAL MOSUNNY 80 48 32 NE6 30.12F  
 

 
 
UTZ013>016-019>022-027-190100-  
 
SOUTHERN UTAH  
 
CITY SKY/WX TMP DP RH WIND PRES REMARKS
 
BRYCE CANYON SUNNY 81 34 18 NW18G28 30.35F  
CEDAR CITY MOSUNNY 90 38 16 N7 30.17F  
MILFORD SUNNY 93 36 13 N16 30.13F  
ST GEORGE PTCLDY 102 52 18 W17G23 29.92F HX 99  
HANKSVILLE SUNNY 95 30 10 NW18G29 30.05S  
BLANDING N/A 88 33 14 NW5G20 30.21F  
 

 
 
REGIONAL REPORTS COLORADO/ARIZONA  
 
CITY SKY/WX TMP DP RH WIND PRES REMARKS
 
CRAIG, CO PTSUNNY 76 43 30 SW18 30.18F  
GRAND JUNCTION SUNNY 87 44 22 W9 30.07F  
RIFLE, CO MOSUNNY 82 45 27 CALM 30.12F  
MONTROSE, CO SUNNY 83 37 19 N8 30.17S  
CORTEZ, CO SUNNY 87 35 15 N17G25 30.13F  
COLORADO CITY N/A 97 43 15 NW12G17 30.14F HX 92  
PAGE, AZ SUNNY 97 38 13 W6 30.00F HX 92  
GRAND CANYON MOSUNNY 81 50 33 VRB5G18 30.26F  
KINGMAN, AZ SUNNY 93 57 29 W8 30.04F HX 91  
FLAGSTAFF, AZ PTSUNNY 81 53 37 W9 30.29F  
 

 
 
REGIONAL REPORTS NEVADA/IDAHO/WYOMING  
 
CITY SKY/WX TMP DP RH WIND PRES REMARKS
 
LAS VEGAS, NV MOSUNNY 106 53 17 SE6 29.88F HX 104  
ELY, NY SUNNY 87 18 8 N12G23 30.25F  
ELKO, NV SUNNY 90 26 10 W14 30.18F  
POCATELLO, ID MOSUNNY 84 31 14 SW22G30 30.15S  
BURLEY, ID SUNNY 84 35 17 W14G20 30.14F  
FORT BRIDGER, N/A 74 37 25 NW22G31 30.32S  
EVANSTON, WY MOSUNNY 74 39 28 W20G29 30.31S  
ROCK SPRINGS, PTSUNNY 70 34 26 N3 30.24S  
KEMMERER, WY SUNNY 70 34 26 W18G31 30.31S  
 

 
 
 
CLICK HERE TO GO TO PREVIOUS BULLETINS.

The Nexlab UT Page Main Text Page